Palermo, Italy

4:38 AM CEST on October 19, 2018 (GMT +0200)
Punta Raisi

Weather History for LICJ - April, 2018

Change the Weather History Date:

Monday, April 16, 2018

  Actual Average Record
Temperature  
Mean Temperature 61 °F -  
Max Temperature 64 °F 68 °F 71 °F (2006)
Min Temperature 57 °F 58 °F 50 °F (2001)
Degree Days  
Heating Degree Days 4    
Growing Degree Days 11 (Base 50)    
Moisture  
Dew Point 54 °F    
Average Humidity 79    
Maximum Humidity 94    
Minimum Humidity 61    
Precipitation  
Precipitation 0.00 in 0.04 in - ()
Sea Level Pressure  
Sea Level Pressure 29.92 in    
Wind  
Wind Speed 10 mph ()    
Max Wind Speed 20 mph    
Max Gust Speed -    
Visibility 5.9 miles    
Events Rain    
Averages and records for this station are not official NWS values.
T = Trace of Precipitation, MM = Missing Value Source: Averaged Metar Reports

Daily Weather History Graph

Daily Weather History Graph

Search for Another Location

Airport or City:

Astronomy

Apr. 16, 2018 Rise Set
Actual Time 6:30 AM CEST 7:44 PM CEST
Civil Twilight 6:03 AM CEST 8:11 PM CEST
Nautical Twilight 5:31 AM CEST 8:44 PM CEST
Astronomical Twilight 4:57 AM CEST 9:18 PM CEST
Moon 7:02 AM CEST (4/16) 8:14 PM CEST (4/16)
Length of Visible Light 14h 08m
Length of Day
13h 13m
New Moon, 0% of the Moon is Illuminated
Apr 16
New Moon
Apr 22
First Quarter
Apr 30
Full
May 8
Last Quarter
May 15
New

Hourly Weather History & Observations

Time (CEST) Temp. Dew Point Humidity Pressure Visibility Wind Dir Wind Speed Gust Speed Precip Events Conditions
12:20 AM 59.0 °F 57.2 °F 94% 29.80 in 6.2 mi South 4.6 mph - N/A   Scattered Clouds
12:50 AM 60.8 °F 57.2 °F 88% 29.77 in 6.2 mi SW 6.9 mph - N/A   Scattered Clouds
1:20 AM 60.8 °F 57.2 °F 88% 29.77 in 6.2 mi SW 9.2 mph - N/A   Mostly Cloudy
1:50 AM 60.8 °F 55.4 °F 82% 29.80 in 3.7 mi SSW 13.8 mph - N/A Rain Rain
2:00 AM 60 °F 56 °F 83% 29.80 in 6 mi SSW 12.7 mph - -   Mostly Cloudy
2:20 AM 60.8 °F 55.4 °F 82% 29.80 in 3.7 mi SSW 10.4 mph - N/A Rain Rain
2:50 AM 60.8 °F 55.4 °F 82% 29.80 in 5.0 mi SSW 11.5 mph - N/A Rain Light Rain
3:20 AM 60.8 °F 55.4 °F 82% 29.80 in 5.0 mi SW 13.8 mph - N/A Rain Light Rain
3:50 AM 60.8 °F 55.4 °F 82% 29.80 in 6.2 mi SSW 13.8 mph - N/A   Mostly Cloudy
4:20 AM 60.8 °F 55.4 °F 82% 29.80 in 6.2 mi SSW 13.8 mph - N/A   Mostly Cloudy
4:50 AM 60.8 °F 53.6 °F 77% 29.80 in 6.2 mi SSW 15.0 mph - N/A   Scattered Clouds
5:00 AM 60 °F 54 °F 75% 29.81 in 6 mi SSW 16.1 mph - -   Partly Cloudy
5:20 AM 59.0 °F 53.6 °F 82% 29.80 in 6.2 mi SSW 12.7 mph - N/A   Scattered Clouds
5:50 AM 59.0 °F 53.6 °F 82% 29.83 in 6.2 mi SSW 12.7 mph - N/A   Scattered Clouds
6:20 AM 60.8 °F 53.6 °F 77% 29.83 in 6.2 mi SSW 12.7 mph - N/A   Scattered Clouds
6:50 AM 60.8 °F 53.6 °F 77% 29.83 in 6.2 mi SSW 13.8 mph - N/A   Scattered Clouds
7:20 AM 60.8 °F 53.6 °F 77% 29.86 in 6.2 mi SW 11.5 mph - N/A   Partly Cloudy
7:50 AM 60.8 °F 53.6 °F 77% 29.86 in - SSW 9.2 mph - N/A   Clear
8:00 AM 61 °F 54 °F 70% 29.89 in - SSW 10.4 mph - -  
8:20 AM 60.8 °F 53.6 °F 77% 29.89 in 6.2 mi SSW 10.4 mph - N/A   Partly Cloudy
8:50 AM 60.8 °F 55.4 °F 82% 29.89 in - SW 10.4 mph - N/A   Clear
9:20 AM 62.6 °F 53.6 °F 72% 29.89 in - SW 8.1 mph - N/A   Clear
9:50 AM 62.6 °F 53.6 °F 72% 29.92 in - SSW 10.4 mph - N/A   Clear
10:20 AM 64.4 °F 53.6 °F 68% 29.92 in - SW 12.7 mph - N/A   Clear
10:50 AM 62.6 °F 53.6 °F 72% 29.92 in - WSW 11.5 mph - N/A   Clear
11:20 AM 62.6 °F 55.4 °F 77% 29.95 in 6.2 mi WSW 11.5 mph - N/A   Partly Cloudy
12:20 PM 60.8 °F 55.4 °F 82% 29.95 in 6.2 mi West 12.7 mph - N/A   Partly Cloudy
12:50 PM 60.8 °F 55.4 °F 82% 29.98 in 6.2 mi West 19.6 mph - N/A   Partly Cloudy
1:20 PM 60.8 °F 55.4 °F 82% 29.95 in 6.2 mi West 17.3 mph - N/A   Partly Cloudy
1:50 PM 60.8 °F 55.4 °F 82% 29.98 in - West 13.8 mph - N/A   Clear
2:00 PM 62 °F 56 °F 77% 29.98 in - WSW 8.1 mph - -  
2:20 PM 62.6 °F 55.4 °F 77% 29.98 in - WSW 10.4 mph - N/A   Clear
2:50 PM 62.6 °F 55.4 °F 77% 29.98 in - West 11.5 mph - N/A   Clear
3:20 PM 62.6 °F 57.2 °F 82% 29.95 in - West 11.5 mph - N/A   Clear
3:50 PM 60.8 °F 55.4 °F 82% 29.95 in 6.2 mi West 13.8 mph - N/A   Partly Cloudy
4:20 PM 60.8 °F 55.4 °F 82% 29.98 in 6.2 mi West 13.8 mph - N/A   Partly Cloudy
4:50 PM 60.8 °F 55.4 °F 82% 29.95 in 6.2 mi West 11.5 mph - N/A   Partly Cloudy
5:00 PM 61 °F 56 °F 79% 29.98 in 6 mi West 10.4 mph - -   Scattered Clouds
5:20 PM 60.8 °F 57.2 °F 88% 29.98 in 6.2 mi West 10.4 mph - N/A   Partly Cloudy
5:50 PM 60.8 °F 55.4 °F 82% 29.98 in - West 11.5 mph - N/A   Clear
6:20 PM 60.8 °F 55.4 °F 82% 29.98 in - West 10.4 mph - N/A   Clear
6:50 PM 60.8 °F 55.4 °F 82% 29.98 in - West 17.3 mph - N/A   Clear
7:20 PM 60.8 °F 55.4 °F 82% 29.98 in 6.2 mi West 12.7 mph - N/A   Partly Cloudy
7:50 PM 60.8 °F 55.4 °F 82% 30.01 in - West 10.4 mph - N/A   Clear
8:00 PM 60 °F 54 °F 76% 30.01 in 6 mi WSW 8.1 mph - -  
8:20 PM 59.0 °F 53.6 °F 82% 30.01 in - SSW 8.1 mph - N/A   Clear
8:50 PM 59.0 °F 53.6 °F 82% 30.01 in - SSW 6.9 mph - N/A   Clear
9:20 PM 59.0 °F 51.8 °F 77% 30.04 in - SSW 6.9 mph - N/A   Clear
9:50 PM 59.0 °F 51.8 °F 77% 30.04 in - SSW 6.9 mph - N/A   Clear
10:20 PM 59.0 °F 48.2 °F 67% 30.04 in - South 6.9 mph - N/A   Clear
10:50 PM 59.0 °F 48.2 °F 67% 30.04 in - South 8.1 mph - N/A   Clear
11:00 PM 58 °F 48 °F 61% 30.06 in 6 mi South 5.8 mph - -  
11:20 PM 59.0 °F 50.0 °F 72% 30.04 in - SSW 6.9 mph - N/A   Clear
11:50 PM 57.2 °F 51.8 °F 82% 30.04 in - SSW 11.5 mph - N/A   Clear